Flag for France Weather past 2 weeks in Boulogne-Billancourt, France

Now
39 °F

Passing clouds.


Feels Like: 34 °F
Forecast: 42 / 62 °F
Wind: 7 mph from Northeast

Location: Paris-Orly


UV Index: 0 (Low)

Visibility: N/A


Pressure: 29.95 "Hg

Humidity: 87%

Dew point: 36 °F

Location of Boulogne-BillancourtLocation

Historic Weather in Boulogne-Billancourt

°F

Boulogne-Billancourt temperature yesterday

Maximum temperature yesterday: 57 °F (at 12:00 AM)
Minimum temperature yesterday: 46 °F (at 11:30 PM)
Average temperature yesterday: 54 °F

Past Weeks' High & Low Weather Summary

 TemperatureHumidityPressure
High73 °F (Apr 7, 4:30 PM)100% (Apr 5, 7:00 AM)30.36 "Hg (Apr 5, 7:00 AM)
Low37 °F (Apr 9, 6:00 AM)23% (Apr 17, 6:30 PM)29.74 "Hg (Apr 4, 6:00 AM)
Average54 °F64%30.12 "Hg
* Reported Apr 4 6:00 AM — Apr 19 6:30 AM, Boulogne-Billancourt, Weather by CustomWeather, © 2014

Note: Actual official high and low records may vary slightly from our data, if they occured in-between our weather recording intervals... More about our weather records

Advertising

Historic Weather Conditions — Data for Previous 24 hours

 ConditionsComfort  
Time TempWeatherWind HumidityBarometerVisibility
6:30 AM
Apr 19
39 °FPassing clouds.6 mph87%29.95 "HgN/A
6:00 AM41 °FPassing clouds.7 mph81%29.95 "HgN/A
5:30 AM41 °FClear.8 mph81%29.95 "Hg10 mi
5:00 AM41 °FClear.9 mph81%29.98 "Hg10 mi
4:30 AM41 °FClear.12 mph81%29.98 "Hg10 mi
4:00 AM41 °FClear.12 mph81%29.98 "Hg10 mi
3:30 AM43 °FClear.12 mph76%29.98 "Hg10 mi
3:00 AM43 °FClear.10 mph76%29.98 "Hg10 mi
2:30 AM43 °FPassing clouds.12 mph81%30.01 "HgN/A
2:00 AM43 °FClear.12 mph81%30.01 "Hg10 mi
1:30 AM45 °FPassing clouds.12 mph76%30.01 "HgN/A
1:00 AM45 °FClear.13 mph71%30.01 "Hg10 mi
12:30 AM45 °FClear.13 mph71%30.01 "Hg10 mi
12:00 AM46 °FClear.12 mph62%30.01 "Hg10 mi
11:30 PM
Apr 18
46 °FClear.12 mph62%30.01 "Hg10 mi
11:00 PM48 °FClear.12 mph58%30.01 "Hg10 mi
10:30 PM48 °FClear.12 mph54%30.01 "Hg10 mi
10:00 PM48 °FPassing clouds.12 mph54%30.01 "HgN/A
9:30 PM50 °FPassing clouds.12 mph50%30.01 "HgN/A
9:00 PM50 °FPassing clouds.12 mph50%30.01 "HgN/A
8:30 PM52 °FSunny.14 mph47%30.01 "Hg10 mi
8:00 PM52 °FSunny.15 mph44%30.01 "Hg10 mi
7:30 PM54 °FSunny.13 mph44%29.98 "Hg10 mi
7:00 PM55 °FSunny.15 mph41%30.01 "Hg10 mi
6:30 PM54 °FSunny.15 mph44%30.01 "Hg10 mi
6:00 PM55 °FPassing clouds.13 mph41%30.01 "HgN/A
5:30 PM57 °FSunny.14 mph41%30.01 "Hg10 mi
5:00 PM55 °FSunny.13 mph47%30.01 "Hg10 mi
4:30 PM57 °FSunny.16 mph39%30.01 "Hg10 mi
4:00 PM57 °FSunny.15 mph41%30.01 "Hg10 mi
3:30 PM55 °FPassing clouds.15 mph44%30.01 "HgN/A
3:00 PM57 °FPassing clouds.16 mph39%30.01 "HgN/A
2:30 PM57 °FPassing clouds.14 mph39%30.01 "HgN/A
2:00 PM55 °FSunny.15 mph41%30.01 "Hg10 mi
1:30 PM57 °FPassing clouds.13 mph41%30.01 "HgN/A
1:00 PM57 °FPassing clouds.14 mph44%30.01 "HgN/A
12:30 PM55 °FScattered clouds.14 mph47%30.01 "HgN/A
12:00 PM55 °FScattered clouds.12 mph55%30.01 "HgN/A
11:30 AM55 °FScattered clouds.10 mph51%30.01 "HgN/A
11:00 AM55 °FScattered clouds.10 mph59%30.01 "HgN/A
10:30 AM54 °FBroken clouds.13 mph63%30.04 "HgN/A
10:00 AM52 °FScattered clouds.10 mph72%30.01 "HgN/A
9:30 AM52 °FBroken clouds.10 mph72%30.01 "HgN/A
9:00 AM52 °FBroken clouds.13 mph67%30.01 "HgN/A
8:30 AM52 °FPartly sunny.13 mph67%30.01 "HgN/A
8:00 AM52 °FPartly sunny.12 mph72%30.01 "HgN/A
7:30 AM52 °FPassing clouds.13 mph67%29.98 "HgN/A
7:00 AM52 °FPassing clouds.10 mph67%29.98 "HgN/A
Weather by CustomWeather, © 2014

See weather overview